This is the latest recevied weather packets stored in our database for station/object DB0TGO-14. If no packets are shown the sender has not sent any weather packets the latest 1 day(s).
| Time | Temp. | Humidity | Pressure | Rain* | Wind** | Luminosity | Snow |
|---|---|---|---|---|---|---|---|
| 1777976015 | 18.33° C | 78% | 1010.1 hPa | 0 mm | 0.89 m/s, 45° | - | - |
| 1777975916 | 18.33° C | 77% | 1010.1 hPa | 0 mm | 0.45 m/s, 270° | - | - |
| 1777975800 | 18.33° C | 76% | 1010.1 hPa | 0 mm | 0.45 m/s, 270° | - | - |
| 1777975690 | 18.33° C | 76% | 1010.1 hPa | 0 mm | 0.45 m/s, 270° | - | - |
| 1777975580 | 18.33° C | 76% | 1010.1 hPa | 0 mm | 0.89 m/s, 270° | - | - |
| 1777975485 | 18.33° C | 74% | 1010.1 hPa | 0 mm | 0.89 m/s, 202° | - | - |
| 1777975416 | 18.33° C | 74% | 1010.1 hPa | 0 mm | 0.89 m/s, 68° | - | - |
| 1777975380 | 18.33° C | 74% | 1010.2 hPa | 0 mm | 0.89 m/s, 68° | - | - |
| 1777975275 | 18.33° C | 75% | 1010.1 hPa | 0 mm | 0.89 m/s, 68° | - | - |
| 1777975170 | 18.33° C | 75% | 1010.1 hPa | 0 mm | 0.89 m/s, 68° | - | - |
| 1777975065 | 18.33° C | 76% | 1010 hPa | 0 mm | 0.89 m/s, 68° | - | - |
| 1777974955 | 18.33° C | 75% | 1010 hPa | 0 mm | 0.89 m/s, 68° | - | - |
| 1777974855 | 18.33° C | 75% | 1010 hPa | 0 mm | 0.45 m/s, 90° | - | - |
| 1777974742 | 18.33° C | 77% | 1010 hPa | 0 mm | 0.45 m/s, 45° | - | - |
| 1777974630 | 18.33° C | 76% | 1010 hPa | 0 mm | 0 m/s | - | - |
| 1777974516 | 17.78° C | 78% | 1010.1 hPa | 0 mm | 0 m/s | - | - |
| 1777974466 | 17.78° C | 79% | 1010.1 hPa | 0 mm | 0 m/s | - | - |
| 1777974403 | 17.78° C | 79% | 1010.1 hPa | 0 mm | 0 m/s | - | - |
| 1777974295 | 17.78° C | 81% | 1010.2 hPa | 0 mm | 0 m/s | - | - |
| 1777974185 | 17.78° C | 81% | 1010.2 hPa | 0 mm | 0.45 m/s, 225° | - | - |
| 1777974085 | 17.78° C | 84% | 1010.1 hPa | 0 mm | 0.45 m/s, 225° | - | - |
| 1777973980 | 17.22° C | 83% | 1010.1 hPa | 0 mm | 0.45 m/s, 225° | - | - |
| 1777973865 | 17.78° C | 83% | 1010.1 hPa | 0 mm | 0.45 m/s, 225° | - | - |
| 1777973750 | 17.78° C | 81% | 1010.1 hPa | 0 mm | 0.45 m/s, 225° | - | - |
| 1777973648 | 17.78° C | 80% | 1010.2 hPa | 0 mm | 0.45 m/s, 225° | - | - |
* Rain latest hour (hover to see other rain measurements)
** Current wind speed in m/s (hover to see current wind gust speed)